Regional Weather Roundup
Issued by NWS

Home | Current Version | Previous Version | Text Only | Print | Product List | Glossary On
Versions: 1 2 3 4 5 6 7 8 9 10 11 12 13 14 15 16 17 18 19 20 21 22 23 24 25 26 27 28 29 30 31 32 33 34 35 36 37 38 39 40 41 42 43 44 45 46 47 48 49
000
ASUS45 KBOU 241707
RWRCO

WEATHER ROUNDUP FOR COLORADO
NATIONAL WEATHER SERVICE DENVER/BOULDER CO
1100 AM MDT THU JUL 24 2014

NOTE: "FAIR" INDICATES FEW OR NO CLOUDS BELOW 12000 FEET WITH NO
SIGNIFICANT WEATHER AND/OR OBSTRUCTIONS TO VISIBILITY.

COZ001>005-013-030-031-241800-
...NORTHWEST COLORADO...

CITY           SKY/WX    TMP DP  RH WIND       PRES   REMARKS
CRAIG          CLOUDY    73  49  42 SW16      30.28S
HAYDEN         PTSUNNY   81  45  28 W13G25    30.31S
MEEKER         CLOUDY    78  49  35 SW13      30.31R
MOUNT WERNER   NOT AVBL
STEAMBOAT SPGS PTSUNNY   80  48  33 W7        30.32F
WALDEN         MOSUNNY   73  43  33 SW22G30   30.40S
$$

COZ006>008-011-241800-
...WEST CENTRAL VALLEYS...

CITY           SKY/WX    TMP DP  RH WIND       PRES   REMARKS
GRAND JUNCTION PTSUNNY   84  49  29 SE16      30.20S
MONTROSE       MOSUNNY   82  53  36 N6        30.29F
EAGLE          PTSUNNY   79  46  31 SW15G23   30.35F
RIFLE          PTSUNNY   80  51  36 W3        30.25F
DELTA          CLOUDY    85  52  31 E7        30.25F
NUCLA          PTSUNNY   86  45  23 SW12      30.32F
$$

COZ017>023-064>068-241800-
...SOUTHWEST COLORADO...

CITY           SKY/WX    TMP DP  RH WIND       PRES   REMARKS
DURANGO        SUNNY     77  49  37 VRB3      30.38F
CORTEZ         MOSUNNY   83  49  30 SW9       30.31S
PAGOSA SPRINGS SUNNY     73  46  38 CALM      30.47F
TELLURIDE      PTSUNNY   73  43  33 S7        30.53S
WOLF CREEK PAS NOT AVBL
$$

COZ009-010-012-014-032>034-037-058>063-241800-
...CENTRAL COLORADO...

CITY           SKY/WX    TMP DP  RH WIND       PRES   REMARKS
ASPEN          PTSUNNY   69  50  50 N5        30.45S
BUENA VISTA    MOSUNNY   77  43  29 E3        30.41F
COPPER MTN     PTSUNNY   59  37  44 W17       30.76S
BERTHOUD PASS  FAIR      54  39  58 MISG      30.78S
COTTONWOOD PAS MOSUNNY   73  34  23 W17G24    30.58S
GUNNISON       SUNNY     73  45  35 E3        30.45F
KREMMLING      MOSUNNY   81  39  22 SW12G18   30.38F
LEADVILLE      PTSUNNY   64  39  39 NW8       30.58S
MONARCH PASS   MOSUNNY   55  39  54 SW21G29   30.85S
SALIDA         MOSUNNY  N/A N/A N/A SW16G24   30.45F
SUNLIGHT       CLOUDY    61  52  72 CALM      30.69R
WILKERSON PASS MOSUNNY   61  41  48 SW5       30.70R
$$

COZ069>075-241800-
...SAN LUIS VALLEY/SANGRE DE CRISTO MOUNTAINS...

CITY           SKY/WX    TMP DP  RH WIND       PRES   REMARKS
ALAMOSA        SUNNY     75  47  36 SE6       30.42F
LA VETA PASS   SUNNY     64  45  48 SW12G22   30.60S
SAGUACHE       MOSUNNY   72  48  43 S8        30.45F
$$

COZ035-036-038>040-241800-
...NORTHERN COLORADO FRONT RANGE...

CITY           SKY/WX    TMP DP  RH WIND       PRES   REMARKS
DENVER INTL AP MOSUNNY   92  44  19 VRB6      30.12F
DMNS CITY PARK   N/A     91  44  19 E3        30.11S
AURORA         MOSUNNY   88  48  25 W3        30.15F
FRONT RANGE AP MOSUNNY   90  45  20 CALM      30.14F
ERIE MUNI ARPT MOSUNNY   93  47  20 SE6       30.09S
BOULDER MUN AP MOSUNNY   88  54  31 E6        30.10S
CENTENNIAL     MOSUNNY   88  43  20 SE5       30.17S
BROOMFIELD     MOSUNNY   91  46  21 VRB3      30.13F
FORT COLLINS   SUNNY     90  50  25 S7        30.07F
LONGMONT       SUNNY     91  53  27 SE5       30.10S
$$

COZ041-046-047-076>085-087-088-241800-
...PIKES PEAK/PALMER DIVIDE AND SOUTHERN FOOTHILLS...

CITY           SKY/WX    TMP DP  RH WIND       PRES   REMARKS
COLO. SPRINGS  MOSUNNY   85  50  29 E6        30.22F
A. F. ACADEMY  MOSUNNY   85  46  25 VRB7      30.24F
ELLICOTT       SUNNY     84  50  30 SW9       30.21F
FALCON         SUNNY     84  49  28 SW6       30.29F
FORT CARSON    SUNNY     85  56  36 E6        30.19F
LIMON          SUNNY     91  45  20 S20G26    30.14F
MONUMENT HILL  SUNNY     82  43  24 SW5       30.28S
TRINIDAD       SUNNY     88  42  20 W6        30.23F
$$

COZ042>045-048>051-090-091-241800-
...NORTHEAST COLORADO...

CITY           SKY/WX    TMP DP  RH WIND       PRES   REMARKS
GREELEY ARPT   SUNNY     88  61  40 CALM      30.07F
AKRON          SUNNY     95  48  20 SW16G25   30.06S
BURLINGTON     SUNNY     93  52  24 SW17G25   30.08F
WRAY             N/A    100  42  14 S21G33    29.99F
STERLING       SUNNY     91  68  46 S9        30.00F
HOLYOKE        SUNNY     95  59  30 S14G22    30.00F
FORT MORGAN    SUNNY     93  50  23 SW6       30.06F
$$

COZ086-089-092>099-241800-
...SOUTHEAST COLORADO...

CITY           SKY/WX    TMP DP  RH WIND       PRES   REMARKS
PUEBLO         SUNNY     91  48  22 SW9       30.11F
LA JUNTA       SUNNY     92  52  25 SW12      30.10F
LAMAR          SUNNY     95  51  22 SW9       30.05F
SPRINGFIELD      N/A     91  48  22 S20G28    30.14F
$$



USA.gov is the U.S. government's official web portal to all federal, state and local government web resources and services.